TFFRTNCM

Guest
Details From TFFR - Pointe a Pitre Le Raizet
To TNCM - St Maarten - Princess Juliana Intl
Flight Number -
Tags generated
Created
Modified
Stats Distance 140 nm / 260 km
Max Altitude 10,700 ft / 3,261 m
Waypoints 4
Social Downloads 0
Likes 0
Share VATSIM

Download

Looking for another format? Having issues loading an existing format? Contact us
Advertisement - Login to hide

Notes

Basic altitude profile: - Ascent Rate: 1500ft/min - Ascent Speed: 250kts - Cruise Altitude: 320ft - Cruise Speed: 420kts - Descent Rate: 1500ft/min - Descent Speed: 250kts Options: - Use NATs: yes - Use PACOTS: yes - Use low airways: yes - Use high airways: yes

Route

TFFR PPR A517 BIMBO TNCM

ID Type Via Altitude Latitude Longitude Leg Dist Tot Dist Heading (true) Name
O TFFR APT - 0 ft / 0 m 16.26531˚ -61.53181˚ - 0 nm - Pointe a Pitre Le Raizet
PPR DME - 100 ft / 30 m 16.26519˚ -61.54014˚ 0 nm 0 nm 269° / 269° POINTE A PITRE VOR-DME
BIMBO FIX A517 (AWY-LO) 10,700 ft / 3,261 m 16.62667˚ -61.96028˚ 32 nm 32 nm 312° / 312° -
O TNCM APT - 0 ft / 0 m 18.04089˚ -63.10897˚ 107 nm 140 nm 322° / 322° St Maarten - Princess Juliana Intl

Altitude Profile

Advertisement - Login to hide

TFFR

Details ICAO TFFR (PTP)
Name Pointe a Pitre Le Raizet
Region France (Guadeloupe, Martinique, Saint Barthélemy, Saint Martin)
Timezone America/Guadeloupe (UTC-4.0)
Stats Elevation 35 ft / 11 m (AMSL)
Location 16.265306° -61.531808°
Runways 1
Magnetic Variation 14.868° W

METAR

TFFR 261430Z AUTO 09007KT 060V130 9999 -RA FEW023 SCT029 BKN037 28/23 Q1016 TEMPO VRB15G25KT 1400 TSRA BKN011 BKN015CB

Decode

TAF

TAF TFFR 261100Z 2612/2712 10012KT 9999 SCT030 TEMPO 2612/2712 3000 SHRA BKN018TCU PROB30 TEMPO 2615/2620 VRB15G25KT 1400 TSRA BKN011 BKN015CB PROB40 TEMPO 2703/2710 VRB15G25KT 1000 TSRA BKN011CB

Decode

Departure Runways

ID Width Length Bearing (true) Bearing (mag) Surface Threshold Offset Overrun Length
11 148 ft / 45 m 11,513 ft / 3,509 m 100.94° 115.81° Asphalt 0 ft / 0 m 0 ft / 0 m
29 148 ft / 45 m 11,513 ft / 3,509 m 280.95° 295.82° Asphalt 0 ft / 0 m 0 ft / 0 m

TNCM

Details ICAO TNCM (SXM)
Name St Maarten - Princess Juliana Intl
Region Caribbean Netherlands, Aruba, Curaçao, Sint Maarten
Timezone Unknown (UTC+0.0)
Stats Elevation 12 ft / 4 m (AMSL)
Location 18.040889° -63.108974°
Runways 1
Magnetic Variation 14.337° W

METAR

TNCM 261400Z 10011KT 060V140 9999 FEW022 29/22 Q1017 A3004 NOSIG

Decode

TAF

TAF TNCM 261143Z 2612/2712 09010KT P6SM FEW018 FM261400 11014KT P6SM SCT020 FM262300 09010KT P6SM VCSH SCT018 SCT040

Decode

Destination Runways

ID Width Length Bearing (true) Bearing (mag) Surface Threshold Offset Overrun Length
10 148 ft / 45 m 7,464 ft / 2,275 m 81.43° 95.77° Asphalt 0 ft / 0 m 151 ft / 46 m
28 148 ft / 45 m 7,464 ft / 2,275 m 261.44° 275.78° Asphalt 397 ft / 121 m 0 ft / 0 m

Popular Alternatives